Location: Caltech
(34.1382°N, 118.1253°W)
Time: 01:48:01
(UTC-07:00)

Cosmos 1697 Rocket - Visible Passes

Search period start: 23 May 2015 00:00
Search period end: 02 June 2015 00:00
Orbit: 833 x 843 km, 71.0° (Epoch: 22 May)

Date Brightness Start Highest point End Pass type
(mag) Time Alt. Az. Time Alt. Az. Time Alt. Az.
23 May 5.8 05:06:24 10° NNE 05:10:20 20° ENE 05:14:27 10° ESE visible
23 May 5.8 21:39:01 10° W 21:42:01 14° NW 21:44:45 10° NNW visible
24 May 5.8 04:50:27 10° NNE 04:54:11 18° NE 04:58:06 10° E visible
24 May 5.8 21:22:32 10° W 21:25:51 15° NW 21:28:54 10° NNW visible
25 May 5.8 04:34:32 10° NNE 04:38:01 17° NE 04:41:44 10° E visible
25 May 5.8 21:06:07 10° W 21:09:41 16° NW 21:13:02 10° NNW visible
26 May 5.8 04:18:38 10° NNE 04:21:51 16° NE 04:25:19 10° E visible
26 May 5.9 20:49:43 10° W 20:53:31 18° NW 20:57:06 10° NNW visible
27 May 5.8 04:02:46 10° NNE 04:05:41 15° NE 04:08:53 10° E visible
27 May 5.9 20:33:21 10° WSW 20:37:22 19° NW 20:41:11 10° NNW visible
28 May 5.8 03:46:56 10° NNE 03:49:31 14° NE 03:52:24 10° E visible
29 May 5.8 03:31:09 10° NNE 03:33:21 13° NE 03:35:51 10° ENE visible
30 May 5.8 03:15:28 10° NNE 03:17:10 12° NE 03:19:12 10° ENE visible
30 May 2.7 04:56:24 10° NNW 05:02:02 88° WSW 05:07:39 10° SSE visible
31 May 5.9 02:59:58 10° NE 03:00:59 11° NE 03:02:21 10° ENE visible
31 May 2.7 04:40:18 10° NNW 04:45:56 86° ENE 04:51:33 10° SSE visible
01 Jun 2.8 04:24:13 10° NNW 04:29:50 79° ENE 04:35:27 10° SSE visible
